Location: Unspecified
(0.0000°N, 0.0000°E)
Time: 02:32:02
(UTC+00:00)

Courier 1B Rocket - Pass Details

Date: 15 December 2018
Orbit: 920 x 1202 km, 28.3° (Epoch: 16 January)

Event Time Altitude Azimuth Distance (km) Brightness Sun altitude
Rises 13:51:40 0° 328° (NNW) 3,942 8.1 53.4°
Reaches altitude 10° 13:56:05 10° 352° (N) 3,039 7.5 52.5°
Maximum altitude 13:59:50 14° 22° (NNE) 2,765 7.2 51.8°
Drops below altitude 10° 14:03:39 10° 52° (NE) 3,105 7.4 51.1°
Sets 14:08:14 0° 76° (ENE) 4,089 7.9 50.2°
